TimePST,TemperatureF,Dew PointF,Humidity,Sea Level PressureIn,VisibilityMPH,Wind Direction,Wind SpeedMPH,Gust SpeedMPH,PrecipitationIn,Events,Conditions,WindDirDegrees,DateUTC
12:15 AM,39.2,35.6,87,29.77,10.0,SSE,13.8,21.9,N/A,,Overcast,160,2012-12-01 08:15:00
12:55 AM,39.2,35.6,87,29.77,10.0,South,10.4,-,N/A,,Overcast,170,2012-12-01 08:55:00
1:15 AM,39.2,35.6,87,29.77,10.0,South,12.7,-,N/A,,Overcast,190,2012-12-01 09:15:00
1:35 AM,39.2,35.6,87,29.78,10.0,South,13.8,19.6,N/A,,Overcast,170,2012-12-01 09:35:00
2:15 AM,39.2,35.6,87,29.76,10.0,SSE,16.1,-,N/A,,Overcast,150,2012-12-01 10:15:00
2:35 AM,39.2,37.4,93,29.76,10.0,SSE,13.8,-,N/A,,Overcast,160,2012-12-01 10:35:00
3:15 AM,39.2,35.6,87,29.76,10.0,SSE,16.1,-,N/A,,Overcast,160,2012-12-01 11:15:00
3:35 AM,39.2,35.6,87,29.76,10.0,South,13.8,21.9,N/A,,Overcast,170,2012-12-01 11:35:00
3:55 AM,41.0,35.6,81,29.77,10.0,South,18.4,23.0,N/A,,Overcast,170,2012-12-01 11:55:00
4:15 AM,41.0,35.6,81,29.76,10.0,South,13.8,23.0,N/A,,Overcast,170,2012-12-01 12:15:00
4:35 AM,39.2,35.6,87,29.77,10.0,South,15.0,21.9,N/A,,Overcast,170,2012-12-01 12:35:00
4:55 AM,39.2,35.6,87,29.77,10.0,SSE,17.3,21.9,N/A,,Overcast,160,2012-12-01 12:55:00
5:15 AM,41.0,35.6,81,29.77,10.0,SSE,19.6,25.3,N/A,,Overcast,160,2012-12-01 13:15:00
5:35 AM,39.2,35.6,87,29.77,10.0,SSE,20.7,28.8,N/A,,Overcast,160,2012-12-01 13:35:00
6:15 AM,39.2,37.4,93,29.79,10.0,SSE,19.6,27.6,N/A,,Overcast,160,2012-12-01 14:15:00
6:35 AM,39.2,37.4,93,29.80,10.0,SSE,18.4,24.2,N/A,,Overcast,160,2012-12-01 14:35:00
7:15 AM,39.2,37.4,93,29.82,10.0,SSE,21.9,29.9,N/A,,Mostly Cloudy,160,2012-12-01 15:15:00
7:35 AM,39.2,37.4,93,29.83,10.0,SSE,21.9,25.3,N/A,,Mostly Cloudy,160,2012-12-01 15:35:00
7:55 AM,39.2,37.4,93,29.83,10.0,SSE,21.9,27.6,N/A,,Overcast,150,2012-12-01 15:55:00
8:15 AM,39.2,37.4,93,29.84,10.0,SSE,18.4,25.3,N/A,,Overcast,150,2012-12-01 16:15:00
8:35 AM,41.0,37.4,87,29.85,9.0,SSE,13.8,19.6,N/A,,Overcast,160,2012-12-01 16:35:00
8:55 AM,41.0,37.4,87,29.85,10.0,SSE,15.0,24.2,N/A,,Overcast,160,2012-12-01 16:55:00
9:15 AM,41.0,37.4,87,29.85,10.0,South,13.8,21.9,N/A,,Overcast,180,2012-12-01 17:15:00
9:35 AM,41.0,37.4,87,29.86,10.0,South,13.8,20.7,N/A,,Overcast,170,2012-12-01 17:35:00
9:55 AM,41.0,37.4,87,29.87,10.0,South,15.0,19.6,N/A,,Overcast,170,2012-12-01 17:55:00
10:15 AM,42.8,37.4,81,29.87,10.0,South,13.8,-,N/A,,Overcast,170,2012-12-01 18:15:00
10:35 AM,42.8,37.4,81,29.87,10.0,South,12.7,-,N/A,,Overcast,170,2012-12-01 18:35:00
10:55 AM,44.6,39.2,81,29.87,10.0,South,13.8,21.9,N/A,,Overcast,180,2012-12-01 18:55:00
11:15 AM,44.6,39.2,81,29.86,10.0,South,15.0,20.7,N/A,,Overcast,170,2012-12-01 19:15:00
11:35 AM,46.4,37.4,71,29.85,10.0,SSW,18.4,25.3,N/A,,Overcast,200,2012-12-01 19:35:00
12:15 PM,46.4,37.4,71,29.83,10.0,South,15.0,-,N/A,,Overcast,190,2012-12-01 20:15:00
12:35 PM,48.2,37.4,66,29.82,10.0,South,21.9,26.5,N/A,,Overcast,190,2012-12-01 20:35:00
12:55 PM,48.2,37.4,66,29.82,10.0,SSW,24.2,34.5,N/A,,Overcast,200,2012-12-01 20:55:00
1:15 PM,48.2,37.4,66,29.81,10.0,SSW,24.2,29.9,N/A,,Overcast,200,2012-12-01 21:15:00
1:35 PM,48.2,37.4,66,29.80,10.0,SSW,20.7,26.5,N/A,,Overcast,210,2012-12-01 21:35:00
1:55 PM,48.2,37.4,66,29.80,10.0,SSW,19.6,27.6,N/A,,Overcast,200,2012-12-01 21:55:00
2:15 PM,48.2,37.4,66,29.80,10.0,SSW,26.5,29.9,N/A,,Mostly Cloudy,200,2012-12-01 22:15:00
2:35 PM,48.2,35.6,62,29.80,10.0,SSW,20.7,27.6,N/A,,Mostly Cloudy,200,2012-12-01 22:35:00
2:55 PM,48.2,35.6,62,29.80,10.0,South,20.7,27.6,N/A,,Mostly Cloudy,190,2012-12-01 22:55:00
3:15 PM,48.2,33.8,58,29.79,10.0,South,20.7,28.8,N/A,,Clear,190,2012-12-01 23:15:00
3:35 PM,48.2,33.8,58,29.79,10.0,South,23.0,32.2,N/A,,Partly Cloudy,190,2012-12-01 23:35:00
3:55 PM,46.4,33.8,62,29.80,10.0,South,17.3,-,N/A,,Scattered Clouds,190,2012-12-01 23:55:00
4:15 PM,46.4,33.8,62,29.80,10.0,SSW,13.8,-,N/A,,Mostly Cloudy,200,2012-12-02 00:15:00
4:35 PM,46.4,33.8,62,29.79,10.0,SSW,13.8,25.3,N/A,,Overcast,200,2012-12-02 00:35:00
4:55 PM,46.4,33.8,62,29.79,10.0,South,16.1,28.8,N/A,,Overcast,190,2012-12-02 00:55:00
5:15 PM,46.4,33.8,62,29.79,10.0,South,13.8,-,N/A,,Mostly Cloudy,190,2012-12-02 01:15:00
5:35 PM,46.4,33.8,62,29.78,10.0,South,13.8,19.6,N/A,,Mostly Cloudy,180,2012-12-02 01:35:00
5:55 PM,46.4,33.8,62,29.77,10.0,SSE,12.7,26.5,N/A,,Overcast,150,2012-12-02 01:55:00
6:15 PM,46.4,33.8,62,29.76,10.0,SSE,13.8,-,N/A,,Overcast,160,2012-12-02 02:15:00
6:35 PM,46.4,35.6,66,29.75,10.0,SSE,13.8,20.7,N/A,,Overcast,160,2012-12-02 02:35:00
6:55 PM,44.6,35.6,71,29.74,10.0,South,9.2,-,N/A,,Overcast,180,2012-12-02 02:55:00
7:15 PM,44.6,35.6,71,29.73,10.0,SSE,10.4,-,N/A,,Overcast,160,2012-12-02 03:15:00
7:35 PM,46.4,35.6,66,29.71,10.0,South,17.3,21.9,N/A,,Overcast,180,2012-12-02 03:35:00
7:55 PM,46.4,33.8,62,29.72,10.0,South,16.1,21.9,N/A,,Overcast,190,2012-12-02 03:55:00
8:15 PM,46.4,32.0,57,29.71,10.0,SSW,16.1,-,N/A,,Overcast,200,2012-12-02 04:15:00
8:35 PM,46.4,30.2,53,29.70,10.0,SSW,12.7,20.7,N/A,,Overcast,200,2012-12-02 04:35:00
8:55 PM,44.6,33.8,66,29.69,10.0,South,11.5,-,N/A,,Overcast,180,2012-12-02 04:55:00
9:15 PM,44.6,33.8,66,29.68,10.0,South,11.5,-,N/A,,Overcast,170,2012-12-02 05:15:00
9:35 PM,42.8,37.4,81,29.66,10.0,South,16.1,21.9,N/A,,Overcast,170,2012-12-02 05:35:00
9:55 PM,42.8,37.4,81,29.64,10.0,South,25.3,32.2,N/A,,Overcast,170,2012-12-02 05:55:00
10:15 PM,42.8,37.4,81,29.64,10.0,South,23.0,31.1,N/A,,Overcast,170,2012-12-02 06:15:00
10:35 PM,42.8,37.4,81,29.62,10.0,South,19.6,27.6,N/A,,Overcast,170,2012-12-02 06:35:00
10:55 PM,42.8,37.4,81,29.61,10.0,South,19.6,31.1,N/A,,Overcast,170,2012-12-02 06:55:00
11:15 PM,42.8,37.4,81,29.61,10.0,South,24.2,29.9,N/A,,Overcast,170,2012-12-02 07:15:00
11:35 PM,44.6,37.4,76,29.61,10.0,South,28.8,36.8,N/A,,Overcast,170,2012-12-02 07:35:00
11:55 PM,42.8,37.4,81,29.59,10.0,South,21.9,32.2,N/A,,Overcast,170,2012-12-02 07:55:00